Location: Demmingen
(48.6757°N, 10.4375°E)
Time: 19:48:04
(UTC+00:00)

SL-16 R/B - Pass Details

Date: 13 August 2024
Orbit: 842 x 845 km, 71.0° (Epoch: 10 September)

Event Time Altitude Azimuth Distance (km) Brightness Sun altitude
Exits shadow 01:55:40 - 284° (WNW) 3,310 5.0 -18.3°
Reaches altitude 10° 01:59:51 10° 315° (NW) 2,474 4.7 -17.9°
Maximum altitude 02:01:38 11° 334° (NNW) 2,376 4.8 -17.7°
Drops below altitude 10° 02:03:24 10° 352° (N) 2,477 5.2 -17.5°
Sets 02:07:58 0° 26° (NNE) 3,416 6.8 -17.0°
